Find Local Weather

World > North America > United States > Montana

Belgrade, Montana Regional Weather

Lat: 45.78N, Lon: 111.18W
Wx Zone: MTZ055
Warning FLW WEATHER ALERT - WINTER WEATHER ADVISORY (More Info. Click Here) Warning
Feedback
Expires:201811162300;;410908
ASUS45 KTFX 162210
RWRMT 
MONTANA REGIONAL WEATHER ROUNDUP
NATIONAL WEATHER SERVICE GREAT FALLS MT
300 PM MST FRI NOV 16 2018

NOTE: "FAIR" INDICATES FEW OR NO CLOUDS BELOW 12000 FEET WITH NO
SIGNIFICANT WEATHER AND/OR OBSTRUCTIONS TO VISIBILITY.


MTZ008-052>055-162300-
SOUTHWEST MONTANA
  
CITY           SKY/WX    TMP DP  RH WIND       PRES   REMARKS
BOZEMAN        FLURRIES  27  22  81 SW9       30.20R WCI  18          
DILLON         LGT SNOW  25  23  92 NE21G29   30.10R VSB 1   WCI  11  
ENNIS          LGT SNOW  23  21  93 N21G29    30.17R WCI   8          
W YELLOWSTONE  LGT SNOW  28  28 100 CALM      30.05S                  
THREE FORKS      N/A     28  16  61 N10       30.19R WCI  19          
TWIN BRIDGES     N/A     28  17  63 N24       30.08R WCI  14          
$$


SKY/WX - Weather  TMP - Temperature  DP - Dew Point  RH - Relative Humidity
WIND - Wind Direction/Speed PRES - Barometric Pressure